I1SCL Weather Reports


time (UTC)temp
F
wind
direction
speed
knots
gust
knots
rain 1hr
in
rain 24hr
in
rain mn
in
humidity
%
barometer
mb
20260506203625 59 293 8.7 14.8 0.00 0.27 0.00 81 1007.4
20260506203122 58 293 7.8 13.0 0.00 0.27 0.00 81 1007.4
20260506202622 59 270 7.8 13.0 0.00 0.27 0.00 81 1007.2
20260506202125 59 293 7.8 13.0 0.00 0.27 0.00 80 1007.2
20260506201622 59 293 7.8 10.4 0.00 0.27 0.00 80 1007.3
20260506201125 59 293 7.8 13.0 0.00 0.27 0.00 79 1007.3
20260506200628 59 293 7.8 15.6 0.00 0.27 0.00 79 1007.3
20260506200122 59 270 11.3 15.6 0.00 0.27 0.00 78 1007.3
20260506195625 59 270 12.2 15.6 0.00 0.27 0.00 78 1007.1
20260506195122 59 293 10.4 14.8 0.00 0.27 0.00 79 1007.2
20260506194622 59 293 5.2 11.3 0.00 0.27 0.00 79 1007.2
20260506194125 59 338 7.0 15.6 0.00 0.27 0.00 79 1007.1
20260506193631 59 293 11.3 15.6 0.00 0.27 0.00 78 1007.0
20260506193128 59 293 7.8 14.8 0.00 0.27 0.00 78 1006.9
20260506192622 59 315 10.4 14.8 0.00 0.27 0.00 78 1006.6
20260506192129 59 293 8.7 11.3 0.00 0.27 0.00 78 1006.6
20260506191622 59 270 7.8 13.0 0.00 0.27 0.00 78 1006.6
20260506191122 59 293 8.7 13.0 0.00 0.27 0.00 78 1006.6
20260506190625 59 293 8.7 10.4 0.00 0.27 0.00 79 1006.4
20260506190125 59 293 7.8 9.6 0.00 0.27 0.00 79 1006.3
20260506185622 59 270 7.0 9.6 0.00 0.27 0.00 79 1006.4
20260506185125 59 270 7.8 10.4 0.00 0.27 0.00 78 1006.2
20260506184622 60 270 8.7 13.0 0.00 0.27 0.00 77 1006.2
20260506184125 60 293 7.0 13.0 0.00 0.27 0.00 77 1006.0
20260506183622 60 270 7.8 10.4 0.00 0.27 0.00 77 1005.9
20260506183122 60 270 7.8 14.8 0.00 0.27 0.00 76 1006.3
20260506182631 60 293 7.8 11.3 0.00 0.27 0.00 77 1006.0
20260506182125 60 293 6.1 9.6 0.00 0.27 0.00 77 1006.2
20260506181625 60 293 7.0 8.7 0.00 0.27 0.00 77 1005.9
20260506181125 60 315 6.1 8.7 0.00 0.27 0.00 77 1006.3
20260506180628 60 293 4.3 5.2 0.00 0.27 0.00 75 1005.9
20260506180125 60 293 4.3 10.4 0.00 0.27 0.00 75 1006.0
20260506175622 61 293 7.8 13.0 0.00 0.27 0.00 74 1006.0
20260506175122 61 270 7.0 9.6 0.00 0.27 0.00 74 1006.0
20260506174625 61 270 7.8 10.4 0.00 0.27 0.00 74 1006.0
20260506174122 61 270 7.8 9.6 0.00 0.27 0.00 73 1005.8
20260506173625 62 293 7.8 8.7 0.00 0.27 0.00 74 1005.9
20260506173125 61 293 7.8 10.4 0.00 0.27 0.00 73 1006.0
20260506172628 62 270 6.1 9.6 0.00 0.27 0.00 74 1005.8
20260506172128 62 270 7.8 10.4 0.00 0.27 0.00 73 1005.9
20260506171622 62 270 5.2 10.4 0.00 0.27 0.00 73 1005.8
20260506171122 62 270 7.8 13.0 0.00 0.27 0.00 73 1005.9
20260506170622 62 270 7.8 11.3 0.00 0.27 0.00 73 1005.6
20260506170122 62 270 7.8 10.4 0.00 0.27 0.00 74 1005.8
20260506165622 62 270 7.8 11.3 0.00 0.27 0.00 73 1006.0
20260506165125 62 270 7.8 13.0 0.00 0.27 0.00 73 1005.8
20260506164622 62 270 9.6 13.0 0.00 0.27 0.00 72 1005.6
20260506164125 62 270 9.6 14.8 0.00 0.27 0.00 72 1005.9
20260506163622 62 270 9.6 14.8 0.00 0.27 0.00 71 1005.7
20260506163125 62 293 10.4 14.8 0.00 0.27 0.00 72 1006.0
20260506162622 62 293 11.3 15.6 0.00 0.27 0.00 71 1005.6
20260506162122 63 293 10.4 13.0 0.00 0.27 0.00 71 1005.6
20260506161622 63 248 8.7 14.8 0.00 0.27 0.00 71 1005.7
20260506161125 63 293 9.6 14.8 0.00 0.27 0.00 71 1005.7
20260506160623 62 270 11.3 19.1 0.00 0.27 0.00 69 1005.7
20260506160125 63 293 9.6 17.4 0.00 0.27 0.00 69 1005.9
20260506155625 63 270 12.2 15.6 0.00 0.27 0.00 69 1005.7
20260506155122 63 293 10.4 13.0 0.00 0.27 0.00 70 1005.7
20260506154622 63 270 10.4 19.1 0.00 0.27 0.00 69 1005.7
20260506154125 62 270 12.2 20.9 0.00 0.27 0.00 68 1005.8
20260506153622 63 293 10.4 16.5 0.00 0.27 0.00 69 1005.7
20260506153127 62 293 13.0 16.5 0.00 0.27 0.00 70 1005.8
20260506152625 62 293 12.2 15.6 0.00 0.27 0.00 70 1005.7
20260506152128 63 270 10.4 16.5 0.00 0.27 0.00 70 1005.6
20260506151625 63 248 11.3 20.9 0.00 0.27 0.00 70 1005.8
20260506151122 62 270 13.0 19.1 0.00 0.27 0.00 70 1005.7
20260506150625 62 315 11.3 19.1 0.00 0.27 0.00 68 1005.5
20260506150122 62 270 10.4 22.6 0.00 0.27 0.00 71 1005.7
20260506145622 62 270 16.5 23.5 0.00 0.27 0.00 71 1005.8
20260506145125 63 293 12.2 20.9 0.00 0.27 0.00 71 1006.0
20260506144622 62 270 16.5 24.3 0.00 0.27 0.00 71 1005.8
20260506144122 62 293 16.5 22.6 0.00 0.27 0.00 72 1005.8
20260506143622 62 293 15.6 22.6 0.00 0.27 0.00 71 1005.8
20260506143128 62 270 16.5 19.1 0.00 0.27 0.00 73 1005.8
20260506142622 61 293 15.6 21.7 0.00 0.27 0.00 74 1005.7
20260506142125 62 270 13.0 19.1 0.00 0.27 0.00 75 1006.0
20260506141625 61 270 15.6 19.1 0.00 0.27 0.00 75 1006.0
20260506141122 61 270 14.8 21.7 0.00 0.27 0.00 74 1006.0
20260506140622 62 293 16.5 23.5 0.00 0.27 0.00 76 1006.0
20260506140125 61 270 19.1 23.5 0.00 0.27 0.00 75 1006.0
20260506135622 61 270 15.6 23.5 0.00 0.27 0.00 75 1006.2
20260506135122 62 270 16.5 21.7 0.00 0.27 0.00 75 1006.2
20260506134625 61 293 18.2 21.7 0.00 0.27 0.00 77 1006.0
20260506134122 61 270 15.6 21.7 0.00 0.27 0.00 78 1006.5
20260506133628 61 270 13.9 21.7 0.00 0.27 0.00 79 1006.2
20260506133128 60 270 17.4 22.6 0.00 0.27 0.00 80 1006.2
20260506132625 60 270 19.1 22.6 0.00 0.27 0.00 80 1006.0
20260506132122 59 270 19.1 23.5 0.00 0.27 0.00 79 1006.4
20260506131625 60 270 19.1 23.5 0.00 0.27 0.00 78 1006.2
20260506131122 61 270 17.4 24.3 0.00 0.27 0.00 78 1006.3
20260506130628 60 270 19.1 22.6 0.00 0.27 0.00 77 1006.5
20260506130128 60 293 18.2 22.6 0.00 0.27 0.00 77 1006.3
20260506125625 59 270 20.0 22.6 0.00 0.27 0.00 77 1006.5
20260506125122 60 270 18.2 23.5 0.00 0.27 0.00 79 1006.4
20260506124622 60 293 19.1 23.5 0.00 0.27 0.00 78 1006.3
20260506124125 60 248 19.1 23.5 0.00 0.27 0.00 78 1006.2
20260506123622 60 293 17.4 21.7 0.00 0.27 0.00 79 1006.5
20260506123122 60 293 17.4 22.6 0.00 0.27 0.00 79 1006.2
20260506122625 60 270 19.1 23.5 0.00 0.27 0.00 77 1006.0
20260506122125 60 270 19.1 21.7 0.00 0.27 0.00 77 1006.4
20260506121622 60 293 18.2 22.6 0.00 0.27 0.00 77 1006.4
20260506121122 60 270 16.5 24.3 0.00 0.27 0.00 77 1006.4
20260506120625 60 270 19.1 24.3 0.00 0.27 0.00 78 1006.5
20260506120128 60 270 19.1 24.3 0.00 0.27 0.00 78 1006.4
20260506115622 60 293 19.1 23.5 0.00 0.27 0.00 81 1006.0
20260506115122 60 293 19.1 25.2 0.00 0.27 0.00 81 1006.2
20260506114625 59 270 21.7 26.9 0.00 0.27 0.00 81 1006.4
20260506114122 60 270 21.7 26.9 0.00 0.27 0.00 81 1006.4
20260506113625 59 293 23.5 26.9 0.00 0.27 0.00 80 1006.2
20260506113122 59 270 22.6 29.5 0.00 0.27 0.00 81 1006.0
20260506112622 60 270 21.7 25.2 0.00 0.27 0.00 81 1006.3
20260506112125 60 270 20.0 25.2 0.00 0.27 0.00 79 1006.3
20260506111625 60 270 21.7 26.9 0.00 0.27 0.00 78 1006.0
20260506111128 60 270 19.1 26.9 0.00 0.27 0.00 79 1006.3
20260506110622 60 270 20.9 25.2 0.00 0.27 0.00 79 1006.3
20260506110125 60 293 21.7 25.2 0.00 0.27 0.00 77 1006.3
20260506105625 60 270 19.1 25.2 0.00 0.27 0.00 78 1006.2
20260506105122 60 270 19.1 25.2 0.00 0.27 0.00 77 1005.9
20260506104625 60 293 20.0 24.3 0.00 0.27 0.00 79 1006.5
20260506104125 60 270 19.1 24.3 0.00 0.27 0.00 78 1006.4
20260506103628 60 270 16.5 25.2 0.00 0.27 0.00 78 1006.4
20260506103125 60 293 20.0 26.9 0.00 0.27 0.00 77 1006.3
20260506102622 60 270 20.0 25.2 0.00 0.27 0.00 77 1006.2
20260506102128 60 270 19.1 24.3 0.00 0.27 0.00 77 1006.3
20260506101622 59 270 19.1 24.3 0.00 0.27 0.00 78 1006.4
20260506101125 60 293 17.4 23.5 0.00 0.27 0.00 78 1006.4
20260506100622 60 270 19.1 23.5 0.00 0.27 0.00 75 1006.4
20260506100122 60 293 19.1 23.5 0.00 0.27 0.00 74 1006.2
20260506095622 60 270 18.2 22.6 0.00 0.27 0.00 72 1006.2
20260506095122 60 270 18.2 22.6 0.00 0.27 0.00 70 1006.4
20260506094622 60 293 19.1 24.3 0.00 0.27 0.00 69 1006.3
20260506094122 61 293 17.4 21.7 0.00 0.27 0.00 72 1006.2
20260506093625 60 270 19.1 21.7 0.00 0.27 0.00 72 1006.0
20260506093128 60 270 18.2 20.9 0.00 0.27 0.00 74 1006.2
20260506092625 60 270 14.8 17.4 0.00 0.27 0.00 75 1006.5
20260506092122 60 270 12.2 16.5 0.00 0.27 0.00 75 1006.3
20260506091625 59 248 13.0 15.6 0.00 0.27 0.00 77 1006.2
20260506091122 60 270 12.2 15.6 0.00 0.27 0.00 77 1006.3
20260506090625 59 270 13.0 15.6 0.00 0.27 0.00 75 1006.4
20260506090128 59 293 11.3 14.8 0.00 0.27 0.00 78 1006.4
20260506085622 59 270 10.4 13.0 0.00 0.27 0.00 78 1006.2
20260506085125 59 270 8.7 13.0 0.00 0.27 0.00 79 1006.2
20260506084625 58 270 10.4 13.0 0.00 0.27 0.00 80 1005.9
20260506084128 59 270 8.7 11.3 0.00 0.27 0.00 80 1006.2
20260506083622 59 293 8.7 13.0 0.00 0.27 0.00 79 1005.7
20260506083122 59 270 9.6 14.8 0.00 0.27 0.00 78 1005.9
20260506082622 59 270 8.7 13.0 0.00 0.27 0.00 78 1006.0
20260506082122 58 248 9.6 13.0 0.00 0.27 0.00 78 1005.9
20260506081622 59 270 10.4 11.3 0.00 0.27 0.00 78 1006.2
20260506081122 59 270 8.7 13.0 0.00 0.27 0.00 76 1006.0
20260506080122 60 270 10.4 13.0 0.00 0.27 0.00 73 1005.9
20260506073122 59 270 7.8 8.7 0.00 0.27 0.00 70 1006.0
20260506072625 58 293 3.5 7.8 0.00 0.27 0.00 73 1005.8
20260506072122 58 293 5.2 8.7 0.00 0.27 0.00 73 1005.9
20260506071625 58 270 7.0 8.7 0.00 0.27 0.00 74 1005.9
20260506071125 58 248 7.8 8.7 0.00 0.27 0.00 76 1005.8
20260506070625 58 270 3.5 5.2 0.00 0.27 0.00 79 1005.8
20260506070122 57 270 4.3 5.2 0.00 0.27 0.00 81 1005.6
20260506062128 56 270 5.2 7.0 0.00 0.28 0.00 83 1005.6
20260506061622 55 248 5.2 7.0 0.00 0.28 0.00 83 1005.6
20260506061125 55 270 5.2 7.0 0.00 0.28 0.00 83 1005.5
20260506060628 55 293 5.2 7.0 0.00 0.28 0.00 82 1005.7
20260506060122 55 293 5.2 7.0 0.00 0.28 0.00 82 1005.6
20260506051122 55 248 1.7 1.7 0.00 0.28 0.00 76 1005.3
20260506050622 55 23 0.0 1.7 0.00 0.28 0.00 77 1005.2
20260506050122 56 180 0.0 1.7 0.00 0.28 0.00 76 1005.3
20260506045122 56 135 2.6 3.5 0.00 0.28 0.00 76 1005.2
20260506044628 56 158 2.6 3.5 0.00 0.28 0.00 77 1005.0
20260506044125 55 135 3.5 5.2 0.01 0.28 0.00 77 1005.1
20260506043628 55 158 2.6 5.2 0.03 0.28 0.00 77 1005.1
20260506043128 56 158 2.6 3.5 0.05 0.28 0.00 76 1005.2
20260506042631 55 203 2.6 5.2 0.10 0.28 0.00 77 1005.2
20260506042122 55 158 3.5 5.2 0.11 0.28 0.00 76 1005.1
20260506041628 55 158 3.5 5.2 0.12 0.28 0.00 76 1005.2
20260506041125 55 158 3.5 5.2 0.12 0.28 0.00 78 1005.1
20260506040622 54 135 0.9 3.5 0.12 0.28 0.00 81 1005.2
20260506040125 54 135 2.6 7.0 0.12 0.28 0.00 82 1005.1
20260506035631 54 135 5.2 7.0 0.12 0.28 0.00 82 1005.3
20260506035128 55 113 4.3 7.0 0.12 0.28 0.00 81 1005.3
20260506034628 55 293 5.2 15.6 0.12 0.29 0.00 82 1005.6
20260506034122 54 270 11.3 20.9 0.11 0.28 0.00 82 1006.0
20260506033625 54 270 16.5 24.3 0.09 0.25 0.00 82 1005.8
20260506033125 54 293 20.9 24.3 0.07 0.23 0.00 80 1005.6
20260506032628 55 293 13.0 19.1 0.02 0.18 0.00 78 1005.8
20260506032122 55 270 14.8 21.7 0.01 0.17 0.00 77 1005.6
20260506031622 55 315 13.0 20.9 0.00 0.16 0.00 77 1005.5
20260506031122 57 248 13.0 14.8 0.00 0.16 0.00 74 1005.7
20260506030622 57 315 0.9 7.0 0.00 0.16 0.00 74 1005.3
20260506030131 56 45 3.5 5.2 0.00 0.16 0.00 77 1005.1
20260506025622 56 90 2.6 5.2 0.00 0.16 0.00 78 1005.2
20260506025125 56 113 5.2 5.2 0.00 0.16 0.00 79 1005.3
20260506024625 57 90 1.7 3.5 0.00 0.16 0.00 78 1005.5
20260506024122 57 135 2.6 3.5 0.00 0.16 0.00 76 1005.5
20260506023625 57 135 2.6 3.5 0.00 0.16 0.00 74 1005.5
20260506023125 57 113 0.9 2.6 0.00 0.16 0.00 74 1005.5
20260506022622 57 135 1.7 3.5 0.00 0.16 0.00 74 1005.3
20260506022125 57 158 0.9 5.2 0.00 0.16 0.00 75 1005.7
20260506021622 58 158 4.3 5.2 0.00 0.16 0.00 70 1005.8
20260506021122 58 113 0.0 2.6 0.00 0.16 0.00 69 1005.8
20260506020622 57 90 0.9 2.6 0.00 0.17 0.00 72 1005.7
20260506020122 57 90 1.7 2.6 0.00 0.27 0.00 75 1005.9
20260506015622 55 113 1.7 2.6 0.00 0.27 0.00 79 1006.2
20260506015125 56 338 0.0 1.7 0.00 0.27 0.00 81 1006.4
20260506014622 56 248 0.9 1.7 0.00 0.27 0.00 82 1006.3
20260506014122 56 270 0.9 1.7 0.00 0.27 0.00 82 1006.5
20260506013625 55 0 0.0 1.7 0.00 0.27 0.00 83 1006.5
20260506013125 56 113 0.0 2.6 0.00 0.27 0.00 83 1006.3
20260506012625 56 113 0.0 1.7 0.00 0.27 0.00 83 1006.3
20260506012125 55 68 0.0 1.7 0.00 0.27 0.00 83 1006.2
20260506011625 55 293 0.9 1.7 0.00 0.27 0.00 84 1006.4
20260506011122 55 0 0.9 0.9 0.00 0.27 0.00 84 1006.4
20260506010631 55 45 0.0 2.6 0.00 0.27 0.00 84 1006.4
20260506010122 55 293 1.7 2.6 0.00 0.27 0.00 84 1006.3
20260506005622 55 90 0.0 3.5 0.01 0.27 0.00 85 1006.4
20260506005125 55 113 2.6 5.2 0.01 0.27 0.00 85 1006.0
20260506004625 55 135 5.2 5.2 0.02 0.27 0.00 88 1005.8
20260506004125 54 113 0.9 3.5 0.02 0.27 0.00 88 1005.9
20260506003625 55 68 2.6 3.5 0.02 0.27 0.00 89 1006.0
20260506003122 56 45 0.0 1.7 0.02 0.27 0.00 89 1006.3
20260506002622 56 315 0.0 2.6 0.02 0.27 0.00 89 1006.8
20260506002128 55 180 0.9 2.6 0.02 0.27 0.00 89 1006.8
20260506001631 56 315 0.0 2.6 0.02 0.27 0.00 89 1006.8
20260506001125 56 293 2.6 3.5 0.03 0.27 0.00 89 1007.0
20260506000625 56 113 0.0 0.9 0.03 0.27 0.00 89 1007.2
20260506000128 56 113 0.0 0.9 0.03 0.27 0.00 89 1007.2
20260505235625 56 338 0.0 1.7 0.02 0.25 0.00 89 1007.4
20260505235125 56 315 0.0 0.9 0.03 0.27 0.00 89 1007.6
20260505234625 56 315 0.0 2.6 0.04 0.25 0.00 88 1007.7
20260505234125 56 293 1.7 2.6 0.04 0.25 0.00 88 1008.1
20260505233622 56 270 1.7 3.5 0.05 0.25 0.00 88 1008.1
20260505233122 56 293 2.6 3.5 0.08 0.25 0.00 88 1008.2
20260505232622 56 293 2.6 3.5 0.09 0.25 0.00 88 1008.1
20260505232125 56 293 2.6 3.5 0.10 0.25 0.00 88 1008.4
20260505231622 56 338 1.7 5.2 0.10 0.25 0.00 87 1008.5
20260505231125 56 270 2.6 5.2 0.10 0.24 0.00 87 1008.6
20260505230622 56 90 0.0 2.6 0.10 0.24 0.00 87 1008.4
20260505230125 56 203 0.0 5.2 0.10 0.25 0.00 87 1008.1
20260505225622 56 270 5.2 9.6 0.10 0.25 0.00 86 1008.2
20260505225122 56 270 7.0 8.7 0.09 0.24 0.00 85 1008.3
20260505224622 56 315 2.6 7.0 0.07 0.22 0.00 85 1008.2
20260505224122 57 270 4.3 5.2 0.07 0.22 0.00 84 1008.2
20260505223622 57 248 1.7 2.6 0.05 0.22 0.00 84 1008.2
20260505223122 57 90 0.0 1.7 0.03 0.21 0.00 84 1008.2
20260505222622 57 68 0.0 1.7 0.02 0.20 0.00 84 1008.0
20260505222125 57 90 0.9 2.6 0.01 0.18 0.00 83 1008.2
20260505221625 57 113 0.9 2.6 0.01 0.20 0.00 83 1008.5
20260505221128 58 113 0.9 5.2 0.00 0.18 0.00 82 1008.5
20260505220622 58 135 2.6 5.2 0.00 0.18 0.00 81 1008.1
20260505220122 58 90 0.9 5.2 0.00 0.20 0.00 82 1008.2
20260505215622 57 113 4.3 5.2 0.00 0.20 0.00 82 1008.2
20260505215122 58 113 3.5 5.2 0.00 0.20 0.00 82 1008.4
20260505214622 58 45 2.6 5.2 0.00 0.20 0.00 82 1008.6
20260505214125 58 90 3.5 7.8 0.00 0.20 0.00 82 1008.9
20260505213622 58 90 5.2 8.7 0.00 0.20 0.00 82 1009.4
20260505213125 58 113 2.6 7.8 0.00 0.20 0.00 83 1009.4
20260505212622 57 45 5.2 8.7 0.00 0.21 0.00 84 1009.4
20260505212122 57 68 5.2 8.7 0.00 0.21 0.00 84 1009.2
20260505211622 57 68 3.5 7.0 0.00 0.22 0.00 85 1009.3
20260505211125 57 90 2.6 7.0 0.00 0.22 0.00 85 1009.3
20260505210625 57 68 2.6 10.4 0.00 0.22 0.00 85 1009.6
20260505210122 57 90 5.2 10.4 0.00 0.22 0.00 85 1009.2
20260505205625 57 113 3.5 7.0 0.00 0.22 0.00 85 1009.4
20260505205131 57 90 4.3 7.0 0.00 0.22 0.00 85 1009.8
20260505204625 57 113 4.3 7.0 0.00 0.22 0.00 85 1009.7
20260505204122 57 68 4.3 8.7 0.00 0.22 0.00 85 1009.7